Regional Weather Roundup
Issued by NWS State College, PA

Home | Current Version | Previous Version | Graphics & Text | Print | Product List | Glossary On
Versions: 1 2 3 4 5 6 7 8 9 10 11 12 13 14 15 16 17 18 19 20 21 22 23 24 25 26 27 28 29 30 31 32 33 34 35 36 37 38 39 40 41 42 43 44 45 46 47 48 49 50
000
ASUS41 KCTP 211703
RWRCTP

REGIONAL WEATHER ROUNDUP
NATIONAL WEATHER SERVICE STATE COLLEGE PA
100 PM EDT SAT OCT 21 2017

Note: "fair" indicates few or no clouds below 12,000 feet with no
significant weather and/or obstructions to visibility.

* = STATION THAT DOES NOT REPORT PRECIPITATION /E.G. RAIN...SNOW...ETC/
    THUNDER OR FOG.

PAZ002>004-007>009-013>016-020>023-029>032-211800-
WESTERN PENNSYLVANIA

CITY           SKY/WX    TMP DP  RH WIND       PRES   REMARKS
ERIE           PTSUNNY   71  47  42 S10       30.27F
MEADVILLE      CLOUDY    66  44  45 VRB3      30.30F
FRANKLIN*      CLOUDY    67  47  48 S9        30.32S
NEW CASTLE     FAIR      68  48  48 CALM      30.30F
BEAVER COUNTY  SUNNY     68  48  49 SE3       30.30
BUTLER*        MOSUNNY   69  49  48 VRB5      30.30F
PITTSBURGH INT CLOUDY    72  50  45 SE5       30.28F
PITTSBURGH     SUNNY     72  47  40 S7        30.29F
INDIANA*       SUNNY     73  43  33 VRB5      30.33F
LATROBE        PTSUNNY   73  48  40 S7        30.31F
WASHINGTON CO* SUNNY     73  51  46 S8        30.31F
$$

PAZ004>006-010>012-017>019-024>028-033>037-041-042-045-046-049>053-211800-
CENTRAL PENNSYLVANIA

CITY           SKY/WX    TMP DP  RH WIND       PRES   REMARKS
BRADFORD       MOSUNNY   69  37  30 S5        30.33F
DUBOIS         MOSUNNY   70  39  32 VRB6      30.32F
CLEARFIELD     MOSUNNY   68  43  40 CALM      30.34F
JOHNSTOWN      SUNNY     71  38  29 S7        30.34F
ALTOONA        SUNNY     73  37  27 SE9       30.35F
STATE COLLEGE  SUNNY     66  48  52 CALM      30.36F
WILLIAMSPORT   CLOUDY    63  45  51 VRB3      30.34F
SELINSGROVE    CLOUDY    65  45  48 CALM      30.36F
FT INDIANTOWN  MOSUNNY   71  42  35 CALM      30.35S
CAPITAL CITY   SUNNY     71  44  37 VRB3      30.35F
HARRISBURG     CLOUDY    68  50  52 S3        30.34F
YORK           SUNNY     73  45  36 VRB3      30.35F
$$

PAZ038>040-043-044-047-048-054-055-060>062-067>071-211800-
EASTERN PENNSYLVANIA

CITY           SKY/WX    TMP DP  RH WIND       PRES   REMARKS
SCRANTON       CLOUDY    67  42  40 W5        30.35F
MOUNT POCONO   SUNNY     71  42  35 SE9       30.36F
ALLENTOWN      SUNNY     73  43  33 SW3       30.35F
QUAKERTOWN*    SUNNY     73  41  31 CALM      30.35F
READING        SUNNY     73  41  31 CALM      30.34F
LANCASTER      SUNNY     71  49  45 CALM      30.35F
COATESVILLE    SUNNY     73  34  23 CALM      30.36F
POTTSTOWN      SUNNY     73  42  32 VRB3      30.36F
BLUE BELL      SUNNY     73  41  31 CALM      30.36S
DOYLESTOWN     SUNNY     74  35  24 S5        30.34F
WILLOW GROVE   NOT AVBL
NORTH PHILA    SUNNY     77  40  26 CALM      30.35F
PHILADELPHIA   PTSUNNY   73  40  30 CALM      30.34F
$$



USA.gov is the U.S. government's official web portal to all federal, state and local government web resources and services.